Miscellaneous Local Product
Issued by NWS Hastings, NE

Home | Current Version | Previous Version | Graphics & Text | Print | Product List | Glossary On
Versions: 1 2 3 4 5 6 7 8 9 10 11 12 13 14 15 16 17 18 19 20 21 22 23 24 25 26 27 28 29 30 31 32 33 34 35 36 37 38 39 40 41 42 43 44 45 46 47 48 49 50
000
AXUS43 KGID 212302
MISGRI

GID CWA HOURLY WEATHER ROUNDUP
NATIONAL WEATHER SERVICE HASTINGS NE
500 PM CST TUE FEB 21 2017

NOTE: "FAIR" INDICATES FEW OR NO CLOUDS BELOW 12,000 FEET WITH NO
SIGNIFICANT WEATHER AND/OR OBSTRUCTIONS TO VISIBILITY.

...SOUTH CENTRAL NEBRASKA...

CITY           SKY/WX    TMP DP  RH WIND       PRES   REMARKS
GRAND ISLAND   SUNNY     77  32  19 W13       29.80F
HASTINGS       SUNNY     76  28  17 SW9       29.83F
KEARNEY        SUNNY     77  28  16 W14       29.83S
ORD            SUNNY     76  27  16 W15       29.76F
YORK           SUNNY     73  27  17 SW13G18   29.81F
AURORA         SUNNY     75  30  19 SW15      29.80F
LEXINGTON      SUNNY     77  26  15 W9        29.82F
HOLDREGE       SUNNY     77  23  13 W12       29.83F
HEBRON         SUNNY     75  24  14 SW13G18   29.84F

...NEBRASKA PANHANDLE...

CITY           SKY/WX    TMP DP  RH WIND       PRES   REMARKS
CHADRON        SUNNY     69  26  20 W30G38    29.76F
ALLIANCE       SUNNY     69  17  13 W28G47    29.82S
SCOTTSBLUFF    SUNNY     70  18  13 W29G43    29.83S
SIDNEY         SUNNY     71  15  11 W25G33    29.90F

...WESTERN AND NORTH CENTRAL NEBRASKA...

CITY           SKY/WX    TMP DP  RH WIND       PRES   REMARKS
VALENTINE      SUNNY     73  27  18 W18       29.73S
AINSWORTH      SUNNY     73  34  24 W18       29.74F
ONEILL         SUNNY     75  32  21 W13G21    29.74F
BROKEN BOW     SUNNY     76  31  19 W16       29.79F
IMPERIAL       SUNNY     77  13   9 W13       29.86S
NORTH PLATTE   SUNNY     78  24  13 W13       29.81F
MCCOOK         SUNNY     79  25  13 W13G21    29.85S

...EASTERN NEBRASKA...

CITY           SKY/WX    TMP DP  RH WIND       PRES   REMARKS
NORFOLK        SUNNY     72  31  22 S13       29.74F
SO SIOUX CITY  SUNNY     72  37  28 SW18      29.74F
TEKAMAH        SUNNY     71  40  32 S12       29.78F
COLUMBUS       SUNNY     73  32  21 S13G18    29.79F
ALBION         SUNNY     77  29  17 W7        29.76F
OMAHA EPPLEY   SUNNY     70  37  29 S16       29.81F
OFFUTT AFB     SUNNY     69  37  30 S13       29.82F
MILLARD        SUNNY     75  33  21 S8        29.82F
LINCOLN        SUNNY     74  28  18 SW15      29.83F
NEBRASKA CITY  SUNNY     68  25  19 S12       29.86F
BEATRICE       SUNNY     73  31  21 S14       29.85F
FALLS CITY     SUNNY     68  34  28 S8        29.88F

...NORTHERN KANSAS...

CITY           SKY/WX    TMP DP  RH WIND       PRES   REMARKS
GOODLAND       SUNNY     77  17  10 W9        29.91F
HILL CITY      SUNNY     80  24  12 W9        29.87F
NORTON         CLEAR     79  10   7 SW8       29.85S
PHILLIPSBURG   SUNNY     79  27  14 W6        29.85S
SMITH CENTER   SUNNY     75  27  16 SW8       29.85F
HAYS             N/A     76  27  16 S8        29.88F
RUSSELL        SUNNY     77  25  14 W10       29.87S
CONCORDIA      SUNNY     74  24  15 SW8       29.86F
SALINA         SUNNY     76  28  17 S8        29.88F
TOPEKA         SUNNY     70  25  18 CALM      29.89F



USA.gov is the U.S. government's official web portal to all federal, state and local government web resources and services.